[[{"header":{"parameterUnit":"m.s-1","parameterCategory":2,"la1":30.2991,"la2":30.254,"lo1":-89.0895,"lo2":-89.0444,"dy":0.0017,"dx":0.0017,"nx":28,"ny":28,"refTime":"2024-04-01T03:00:00:Z","depth":"0","parameterNumber":2,"parameterNumberName":"U-component_of_CURRENTS"},"data":[0,0,0,0,0,0,0,0,0,0,0,0,0,0,0,0,0,0,0,0,0,0,0,0,0,0,0,0,0,0,0,0,0,0,0,0,0,0,0,0,0,0,0,0,0,0,0,0,0,0,0,0,0,0,0,0,0,0,0.2453,0.2454,0,0.25,0.25,0.25,0.2495,0.2495,0.2494,0.2494,0.2501,0.2502,0.2502,0,0,0,0,0,0,0,0,0,0,0,0,0,0.238,0.2381,0.2453,0.2454,0.2455,0.2499,0.25,0.25,0.2495,0.2495,0.2494,0.2494,0.2501,0.2502,0.2503,0,0,0,0,0,0,0,0,0,0,0,0,0,0.2415,0.2381,0.2453,0.246,0.2461,0.2499,0.25,0.25,0.2496,0.2495,0.2494,0.2493,0.2501,0.2502,0.2503,0.2525,0,0,0.2506,0.2506,0,0,0,0,0,0,0,0,0.2413,0.2418,0.2458,0.2459,0.2461,0.2493,0.2477,0.2507,0.2496,0.248,0.2494,0.2493,0.2497,0.2498,0.2506,0.2525,0.2525,0.2506,0.2506,0.2507,0.2507,0,0,0,0,0,0,0,0.2411,0.2416,0.2469,0.2459,0.2461,0.2467,0.247,0.2483,0.249,0.2481,0.2482,0.2491,0.2497,0.2505,0.2506,0.2525,0.2506,0.2507,0.2507,0.2508,0.2601,0.2603,0,0,0,0,0,0,0.241,0.2414,0.2468,0.2471,0.2437,0.2469,0.2473,0.2481,0.249,0.2492,0.2491,0.249,0.2504,0.2505,0.2506,0.2558,0.2507,0.2508,0.2508,0.26,0.2602,0.2604,0,0,0,0,0,0,0.2408,0.2414,0.2466,0.2445,0.2452,0.2471,0.2481,0.2483,0.2494,0.2499,0.2499,0.2501,0.2503,0.2505,0.2534,0.2557,0.2508,0.2509,0.2597,0.26,0.2603,0.2645,0,0,0,0,0,0,0.2406,0.2413,0.242,0.2445,0.2453,0.2497,0.2482,0.2484,0.2502,0.2501,0.2508,0.2507,0.2502,0.2532,0.2535,0.2557,0.251,0.2595,0.2599,0.2602,0.2641,0.2649,0.2656,0,0,0,0,0,0.2403,0.2414,0.242,0.2427,0.2462,0.2498,0.2503,0.2512,0.2503,0.2517,0.2526,0.2507,0.2556,0.2535,0.2537,0.2561,0.2593,0.2598,0.2602,0.2638,0.2647,0.2655,0,0,0,0,0,0,0.2382,0.2415,0.2423,0.2442,0.2473,0.2498,0.2511,0.2518,0.2536,0.2534,0.253,0.2532,0.257,0.2564,0.254,0.2601,0.2572,0.2577,0.2599,0.2608,0.2615,0.2616,0.2511,0,0,0,0,0,0.2384,0.2401,0.2436,0.2453,0.2468,0.2492,0.2507,0.2517,0.2537,0.2544,0.255,0.2564,0.2591,0.2596,0.2617,0.2645,0.2684,0.2664,0.2671,0.2677,0.2682,0.2761,0.2776,0.2618,0.2618,0.2618,0,0,0.2379,0.2401,0.241,0.245,0.2471,0.2502,0.2498,0.2527,0.2552,0.2542,0.2574,0.2592,0.2607,0.2645,0.266,0.2639,0.2752,0.2682,0.2687,0.2689,0.2767,0.2783,0.2797,0.2621,0.262,0.262,0,0,0.2384,0.2402,0.2421,0.245,0.2491,0.2512,0.2523,0.2557,0.2571,0.2608,0.2615,0.2648,0.2674,0.2697,0.2709,0.2769,0.2793,0.2776,0.2804,0.2881,0.2894,0.2907,0.3014,0.3035,0.2771,0.2771,0.2772,0,0.2377,0.2409,0.2433,0.2463,0.249,0.2518,0.2549,0.2573,0.2612,0.2633,0.2621,0.2694,0.27,0.276,0.278,0.2783,0.2845,0.2765,0.289,0.2903,0.2914,0.3021,0.3044,0.2774,0.2774,0.2773,0.2773,0,0.2399,0.2429,0.2445,0.2493,0.2525,0.2558,0.2599,0.2629,0.2646,0.2672,0.2734,0.2757,0.2801,0.281,0.2809,0.2899,0.2925,0.2896,0.2865,0.2933,0.3042,0.3065,0.2778,0.2777,0.2776,0.2775,0,0,0.2373,0.2446,0.2451,0.2482,0.2545,0.2572,0.2622,0.2678,0.2719,0.2751,0.2813,0.2851,0.2872,0.289,0.2905,0.2957,0.3099,0.2963,0.2966,0.3065,0.3312,0.331,0.3335,0.3096,0.31,0.3102,0.3368,0,0.2385,0.2443,0.2478,0.2535,0.2572,0.2617,0.2663,0.2716,0.2763,0.2831,0.2865,0.2933,0.2902,0.2943,0.2991,0.3082,0.3157,0.3032,0.3235,0.3242,0.3226,0.3359,0.3245,0.347,0.3391,0.3395,0.3398,0,0.2394,0.2436,0.2491,0.2568,0.2588,0.2623,0.2709,0.276,0.2855,0.2893,0.2961,0.3008,0.3111,0.3065,0.325,0.318,0.3254,0.3306,0.3317,0.331,0.3281,0.3383,0.3515,0.3386,0.3433,0.3431,0.3428,0,0.2366,0.2445,0.2488,0.2514,0.2603,0.2633,0.2684,0.2774,0.2826,0.2955,0.3019,0.3129,0.3216,0.3312,0.3422,0.3362,0.3629,0.3558,0.363,0.3632,0.3571,0.3561,0.3591,0.3692,0.3691,0.369,0.369,0,0.2366,0.24,0.2477,0.2501,0.2549,0.2625,0.2693,0.2756,0.287,0.2951,0.3057,0.3155,0.3282,0.3435,0.3501,0.3668,0.3707,0.3681,0.3709,0.3587,0.3575,0.3485,0.3409,0.37,0.3698,0.3696,0.3694,0,0.2326,0.238,0.2428,0.2513,0.2534,0.2571,0.2672,0.2734,0.2856,0.2976,0.303,0.3224,0.3441,0.3576,0.3776,0.3791,0.3833,0.3968,0.3836,0.3841,0.3737,0.3668,0.3659,0.355,0.4102,0.4103,0.4105,0,0.2307,0.2333,0.2407,0.243,0.2464,0.253,0.2578,0.2697,0.2777,0.3009,0.3075,0.3329,0.3481,0.3805,0.3919,0.41,0.3921,0.4066,0.39,0.3758,0.3703,0.3535,0.3428,0.3866,0.3866,0.3865,0.3865,0,0.2274,0.2302,0.2341,0.2393,0.2436,0.248,0.257,0.2615,0.2786,0.2908,0.311,0.3259,0.3594,0.3747,0.3989,0.4058,0.3855,0.4058,0.3941,0.356,0.3351,0.3249,0.3686,0.386,0.386,0.3861,0.3861,0.3861,0.2245,0.226,0.2326,0.2356,0.24,0.2438,0.2447,0.2559,0.2666,0.2831,0.3047,0.3246,0.3531,0.3862,0.3902,0.3904,0.3851,0.3794,0.3748,0.361,0.3404,0.3848,0.4013,0.4014,0.4015,0.4016,0.4017,0,0.2226,0.2258,0.2292,0.2327,0.2336,0.2386,0.2446,0.2449,0.2525,0.2733,0.2901,0.3231,0.3408,0.3592,0.3742,0.3621,0.3423,0.3501,0.3211,0.3138,0.3584,0.3466,0.3481,0.3481,0.3481,0.3481,0.3481,0.3481,0.2233,0.2258,0.2269,0.2264,0.2276,0.2256,0.2263,0.2276,0.2384,0.2549,0.2734,0.2956,0.3279,0.3493,0.3446,0.335,0.304,0.2936,0.2885,0.3164,0.3184,0.3203,0.3073,0.3005,0.3005,0.2313,0.2307,0.2303]},{"header":{"parameterUnit":"m.s-1","parameterCategory":2,"la1":30.2991,"la2":30.254,"lo1":-89.0895,"lo2":-89.0444,"dy":0.0017,"dx":0.0017,"nx":28,"ny":28,"refTime":"2024-04-01T03:00:00:Z","depth":"0","parameterNumber":3,"parameterNumberName":"V-component_of_CURRENTS"},"data":[0,0,0,0,0,0,0,0,0,0,0,0,0,0,0,0,0,0,0,0,0,0,0,0,0,0,0,0,0,0,0,0,0,0,0,0,0,0,0,0,0,0,0,0,0,0,0,0,0,0,0,0,0,0,0,0,0,0,0.0056,0.0055,0,-0.0008,-0.0009,-0.001,-0.0057,-0.0057,-0.0057,-0.0058,-0.0182,-0.0185,-0.0188,0,0,0,0,0,0,0,0,0,0,0,0,0,0.0101,0.0101,0.0056,0.0055,0.0054,-0.0008,-0.0009,-0.001,-0.0057,-0.0057,-0.0058,-0.0058,-0.0181,-0.0185,-0.0188,0,0,0,0,0,0,0,0,0,0,0,0,0,0.0063,0.0101,0.0056,0.0025,0.0021,-0.0008,-0.0009,-0.001,-0.0057,-0.0057,-0.0058,-0.0058,-0.018,-0.0184,-0.0189,-0.0208,0,0,-0.0203,-0.0205,0,0,0,0,0,0,0,0,0.0065,0.0061,0.003,0.0027,0.0023,-0.0024,-0.0038,-0.0079,-0.0057,-0.0029,-0.0058,-0.0058,-0.0134,-0.0142,-0.0154,-0.0214,-0.0219,-0.0203,-0.0206,-0.0208,-0.0209,0,0,0,0,0,0,0,0.0068,0.0063,0.0029,0.0029,0.0025,0.0001,-0.0004,-0.0046,-0.008,-0.0031,-0.0034,-0.0039,-0.0136,-0.0149,-0.0157,-0.0221,-0.0203,-0.0207,-0.021,-0.0212,-0.0283,-0.0282,0,0,0,0,0,0,0.0081,0.0066,0.0031,0.0027,0.0045,0.0001,-0.0005,-0.0009,-0.0078,-0.0088,-0.0039,-0.0041,-0.0141,-0.0152,-0.0162,-0.0169,-0.0208,-0.0212,-0.0215,-0.0283,-0.0282,-0.0281,0,0,0,0,0,0,0.0082,0.0078,0.0034,0.0046,0.0039,0.0001,-0.0003,-0.001,-0.0023,-0.0083,-0.0095,-0.0043,-0.0142,-0.0156,-0.0185,-0.0175,-0.0214,-0.0218,-0.0284,-0.0283,-0.0282,-0.0195,0,0,0,0,0,0,0.0084,0.0079,0.0081,0.0047,0.0039,0.0027,-0.0003,-0.0011,-0.0025,-0.0029,-0.0091,-0.0103,-0.0143,-0.0178,-0.019,-0.0182,-0.0222,-0.0285,-0.0284,-0.0282,-0.0199,-0.0191,-0.0185,0,0,0,0,0,0.0086,0.0096,0.0082,0.0077,0.0043,0.0027,0.0021,-0.0009,-0.0024,-0.0023,-0.006,-0.0101,-0.0176,-0.0181,-0.0195,-0.0188,-0.0286,-0.0284,-0.0282,-0.0203,-0.0193,-0.0185,0,0,0,0,0,0,0.0119,0.0092,0.0075,0.0077,0.0057,0.002,0.002,-0.0003,-0.0031,-0.0036,-0.0094,-0.0108,-0.0129,-0.0168,-0.0172,-0.0202,-0.0237,-0.0238,-0.0172,-0.0163,-0.0156,-0.0145,-0.0225,0,0,0,0,0,0.0127,0.0126,0.0096,0.0098,0.0091,0.0056,0.0045,0.0025,-0.0004,-0.0017,-0.0059,-0.01,-0.0132,-0.0154,-0.019,-0.021,-0.0228,-0.0213,-0.0206,-0.0199,-0.0199,-0.0212,-0.0205,-0.0275,-0.0275,-0.0275,0,0,0.0139,0.0125,0.0124,0.0104,0.0086,0.0088,0.0048,0.004,0.004,-0.0027,-0.0038,-0.0078,-0.0131,-0.0148,-0.0161,-0.018,-0.0182,-0.0197,-0.0191,-0.0195,-0.0209,-0.0202,-0.0196,-0.0274,-0.0274,-0.0274,0,0,0.0171,0.0153,0.0165,0.0153,0.0134,0.0115,0.0116,0.0084,0.0069,0.0054,0.001,-0.0023,-0.0071,-0.0108,-0.0133,-0.0108,-0.0141,-0.0114,-0.0074,-0.0085,-0.0079,-0.0075,-0.0058,-0.0053,-0.0113,-0.0112,-0.0112,0,0.0188,0.0195,0.0167,0.0177,0.0171,0.0133,0.0144,0.0129,0.0091,0.008,0.0064,-0.0002,-0.0053,-0.0078,-0.0068,-0.0094,-0.009,-0.0102,-0.0074,-0.0071,-0.0067,-0.0052,-0.0047,-0.0108,-0.0109,-0.0109,-0.0109,0,0.0226,0.0231,0.024,0.0238,0.023,0.0235,0.0209,0.0202,0.018,0.0156,0.0132,0.0072,0.0034,0.0013,-0.0023,-0.0026,-0.0024,-0.006,-0.0094,-0.0055,-0.0041,-0.0037,-0.0102,-0.0103,-0.0105,-0.0106,0,0,0.0268,0.0267,0.027,0.0275,0.0261,0.0259,0.0265,0.0252,0.0265,0.0222,0.0237,0.016,0.013,0.01,0.0052,0.0031,0.0058,0.0004,0.0001,0.0026,0.0067,0.0075,0.0079,0.0036,0.0037,0.0037,0.0079,0,0.0306,0.0335,0.0322,0.0348,0.036,0.0329,0.0343,0.0326,0.0312,0.0324,0.0256,0.0258,0.0166,0.017,0.0127,0.0083,0.0067,0.0051,0.0019,0.0018,0.0024,0.0082,0.0073,0.011,0.0082,0.0082,0.0082,0,0.0351,0.0361,0.0393,0.0401,0.0405,0.0422,0.0432,0.044,0.0436,0.0432,0.0405,0.0374,0.0338,0.027,0.0191,0.0195,0.0136,0.0091,0.0091,0.0065,0.0031,0.0058,0.0116,-0.0113,0.0087,0.0087,0.0086,0,0.039,0.0411,0.0437,0.0439,0.0448,0.0463,0.0473,0.0473,0.0516,0.0523,0.0583,0.0494,0.0527,0.0405,0.0306,0.0262,0.0246,0.0169,0.0116,0.0117,0.0084,0.0081,-0.0084,0.0115,0.0115,0.0115,0.0114,0,0.0435,0.0455,0.0464,0.0479,0.0526,0.0514,0.0587,0.0578,0.0639,0.0747,0.0658,0.0755,0.057,0.0541,0.0381,0.0286,0.0302,0.0142,0.0129,0.0118,0.0117,-0.0107,-0.0221,0.0116,0.0116,0.0116,0.0115,0,0.0479,0.0479,0.0516,0.0537,0.055,0.0589,0.0684,0.0759,0.0794,0.095,0.0982,0.0986,0.0958,0.0766,0.0621,0.0441,0.0195,0.0263,0.0279,0.0265,-0.0038,-0.0144,-0.0268,-0.036,0.0197,0.0197,0.0198,0,0.0504,0.0528,0.0568,0.0616,0.0635,0.0708,0.0787,0.083,0.095,0.1124,0.1235,0.1259,0.1321,0.1092,0.0766,0.0495,0.0273,0.03,0.0179,-0.0039,-0.0168,-0.0241,-0.0316,0.0183,0.0183,0.0183,0.0183,0,0.0565,0.0581,0.0623,0.0731,0.0814,0.0919,0.1047,0.116,0.1287,0.1439,0.1667,0.1731,0.1529,0.1275,0.0879,0.065,0.0139,0.0296,0.0054,-0.02,-0.0273,-0.0371,0.0155,0.0185,0.0185,0.0185,0.0185,0.0185,0.0634,0.0691,0.078,0.0885,0.0988,0.1167,0.1281,0.1464,0.1689,0.1939,0.1982,0.2109,0.168,0.1143,0.0817,0.0158,0.0174,-0.0063,-0.0169,-0.0218,-0.0337,0.0213,0.0229,0.0229,0.0229,0.0229,0.0229,0,0.0772,0.0847,0.0943,0.1094,0.1241,0.1265,0.1493,0.1639,0.1932,0.2145,0.2323,0.218,0.1643,0.105,0.0191,-0.0245,-0.0428,-0.0492,-0.0643,-0.0696,-0.0225,-0.0262,-0.0331,-0.0331,-0.0331,-0.0331,-0.0331,-0.033,0.0867,0.1012,0.1064,0.1323,0.1418,0.1624,0.1756,0.1967,0.2145,0.24,0.2469,0.2494,0.2008,0.051,-0.0533,-0.0768,-0.1073,-0.1094,-0.1246,-0.0997,-0.0967,-0.0939,-0.1005,-0.1229,-0.1231,-0.1686,-0.1691,-0.1695]}],[{"header":{"parameterUnit":"m.s-1","parameterCategory":2,"la1":30.2991,"la2":30.254,"lo1":-89.0895,"lo2":-89.0444,"dy":0.0017,"dx":0.0017,"nx":28,"ny":28,"refTime":"2024-04-01T03:00:00:Z","depth":"2","parameterNumber":2,"parameterNumberName":"U-component_of_CURRENTS"},"data":[0,0,0,0,0,0,0,0,0,0,0,0,0,0,0,0,0,0,0,0,0,0,0,0,0,0,0,0,0,0,0,0,0,0,0,0,0,0,0,0,0,0,0,0,0,0,0,0,0,0,0,0,0,0,0,0,0,0,0.2091,0.2092,0,0.2134,0.2134,0.2134,0.2151,0.2151,0.2151,0.2151,0.2169,0.217,0.217,0,0,0,0,0,0,0,0,0,0,0,0,0,0.2021,0.2023,0.2091,0.2092,0.2092,0.2134,0.2134,0.2135,0.2151,0.2151,0.2151,0.2151,0.2169,0.217,0.217,0,0,0,0,0,0,0,0,0,0,0,0,0,0.2055,0.2023,0.2091,0.2106,0.2108,0.2134,0.2134,0.2135,0.2151,0.2151,0.2151,0.2151,0.2169,0.217,0.2171,0.2175,0,0,0.2173,0.2173,0,0,0,0,0,0,0,0,0.2053,0.2058,0.2103,0.2105,0.2108,0.2138,0.2117,0.2148,0.2151,0.2133,0.2151,0.2151,0.2158,0.2159,0.2166,0.2176,0.2177,0.2173,0.2173,0.2174,0.2174,0,0,0,0,0,0,0,0.2051,0.2056,0.2106,0.2104,0.2107,0.2111,0.2115,0.2123,0.2143,0.2134,0.2136,0.2143,0.2158,0.2165,0.2166,0.2177,0.2173,0.2174,0.2174,0.2174,0.2274,0.2276,0,0,0,0,0,0,0.2049,0.2054,0.2105,0.2108,0.2082,0.2112,0.2117,0.2127,0.2144,0.2147,0.2143,0.2144,0.2164,0.2165,0.2167,0.2229,0.2174,0.2174,0.2175,0.2272,0.2275,0.2277,0,0,0,0,0,0,0.2047,0.2053,0.2103,0.2083,0.209,0.2113,0.2124,0.2128,0.2139,0.2151,0.2153,0.2151,0.2164,0.2166,0.2193,0.2227,0.2175,0.2175,0.2269,0.2273,0.2276,0.2316,0,0,0,0,0,0,0.2045,0.2052,0.2064,0.2083,0.2091,0.2124,0.2125,0.2129,0.2144,0.2145,0.2158,0.216,0.2164,0.2192,0.2194,0.2227,0.2176,0.2267,0.2271,0.2275,0.2312,0.2321,0.2328,0,0,0,0,0,0.2043,0.2058,0.2064,0.2071,0.2104,0.2125,0.2129,0.2145,0.2144,0.2153,0.2171,0.216,0.222,0.2194,0.2196,0.223,0.2265,0.227,0.2275,0.2309,0.2319,0.2328,0,0,0,0,0,0,0.2032,0.2061,0.2069,0.2092,0.2109,0.2128,0.2143,0.2147,0.2167,0.2175,0.2176,0.218,0.2223,0.2222,0.2193,0.2276,0.2245,0.2251,0.2271,0.228,0.2288,0.2296,0.2177,0,0,0,0,0,0.2036,0.2054,0.2078,0.2096,0.2108,0.2124,0.2136,0.2149,0.2167,0.2176,0.219,0.2215,0.2245,0.2256,0.2281,0.2312,0.2337,0.2342,0.235,0.2356,0.2367,0.2431,0.2445,0.2293,0.2293,0.2293,0,0,0.2034,0.2054,0.2064,0.2095,0.2111,0.2137,0.2131,0.2157,0.2186,0.2175,0.2222,0.224,0.226,0.2309,0.2328,0.2309,0.2417,0.2362,0.2367,0.2375,0.2438,0.2452,0.2465,0.2297,0.2296,0.2296,0,0,0.204,0.2062,0.2079,0.2103,0.2137,0.2151,0.2158,0.2189,0.2211,0.2254,0.2265,0.2301,0.2338,0.2366,0.2382,0.2446,0.2458,0.246,0.25,0.2562,0.2575,0.2586,0.2651,0.2668,0.2461,0.2461,0.2461,0,0.2036,0.2068,0.2086,0.2117,0.2143,0.2157,0.2187,0.2214,0.2252,0.2284,0.2278,0.2363,0.237,0.2434,0.2463,0.2462,0.2504,0.2456,0.2571,0.2583,0.2594,0.2658,0.2676,0.2464,0.2463,0.2463,0.2463,0,0.2066,0.2091,0.2106,0.215,0.2179,0.2209,0.2251,0.2286,0.2313,0.2346,0.242,0.244,0.2495,0.2504,0.2501,0.2587,0.2595,0.2573,0.2541,0.2611,0.2675,0.2693,0.2467,0.2466,0.2466,0.2465,0,0,0.2046,0.2112,0.2115,0.2154,0.2206,0.2238,0.229,0.235,0.2408,0.2445,0.252,0.2565,0.2586,0.2607,0.2612,0.2655,0.2764,0.2651,0.2653,0.2707,0.292,0.2838,0.2849,0.2765,0.2768,0.2771,0.2938,0,0.2059,0.2115,0.215,0.2214,0.225,0.2298,0.235,0.2413,0.247,0.2549,0.2582,0.2657,0.2623,0.2665,0.2703,0.2759,0.2812,0.2722,0.2853,0.2857,0.2767,0.2867,0.2626,0.2746,0.2955,0.2958,0.296,0,0.2072,0.2115,0.2173,0.2265,0.2289,0.2338,0.2446,0.2505,0.2605,0.2651,0.272,0.2757,0.2839,0.2793,0.292,0.287,0.2906,0.2929,0.2936,0.2856,0.2808,0.2709,0.2771,0.299,0.2988,0.2985,0.2984,0,0.2051,0.2132,0.2184,0.2217,0.2318,0.2373,0.2438,0.2541,0.2606,0.2736,0.2793,0.2886,0.2947,0.301,0.3056,0.3014,0.3188,0.3134,0.3092,0.3087,0.2904,0.2877,0.3225,0.3225,0.3224,0.3224,0.3224,0,0.2049,0.2094,0.2189,0.2226,0.231,0.2397,0.2502,0.2575,0.2692,0.278,0.2856,0.2932,0.3006,0.3097,0.3125,0.3178,0.3253,0.3129,0.3132,0.2913,0.2886,0.3102,0.3086,0.323,0.3229,0.3228,0.3227,0,0.2014,0.2066,0.2142,0.2261,0.2299,0.2374,0.2513,0.2586,0.271,0.2828,0.2873,0.3003,0.3127,0.3189,0.3307,0.3261,0.3322,0.3314,0.3052,0.302,0.3166,0.315,0.3302,0.3301,0.3299,0.3298,0.3298,0,0.1996,0.203,0.215,0.2193,0.2252,0.2365,0.2424,0.2565,0.2635,0.2862,0.2899,0.3072,0.3132,0.3275,0.3268,0.3319,0.3352,0.3092,0.2944,0.319,0.3179,0.3164,0.315,0.2736,0.2731,0.2727,0.2723,0,0.1983,0.2029,0.2096,0.2165,0.2239,0.2322,0.2428,0.2471,0.2648,0.2741,0.289,0.2977,0.3109,0.304,0.3092,0.3076,0.3061,0.3002,0.3364,0.2736,0.2665,0.265,0.2654,0.2684,0.2688,0.2691,0.2693,0.2695,0.1975,0.2015,0.2096,0.2158,0.2227,0.2289,0.2321,0.2392,0.2485,0.2569,0.2745,0.2773,0.2824,0.2769,0.2731,0.2707,0.289,0.274,0.2751,0.2767,0.2653,0.2581,0.2566,0.2569,0.2572,0.2574,0.2576,0,0.1995,0.2035,0.2081,0.2158,0.2185,0.2257,0.2321,0.2282,0.2306,0.2388,0.2447,0.2293,0.2274,0.2351,0.2261,0.2266,0.2215,0.2171,0.208,0.2122,0.2158,0.2009,0.1754,0.1751,0.1749,0.1746,0,0,0.2016,0.2059,0.2076,0.2105,0.215,0.215,0.2168,0.2074,0.2074,0.1982,0.1973,0.2118,0.227,0.1968,0.1952,0.1844,0.196,0.1774,0.2439,0.2375,0.2407,0.2502,0.2321,0,0,0,0,0]},{"header":{"parameterUnit":"m.s-1","parameterCategory":2,"la1":30.2991,"la2":30.254,"lo1":-89.0895,"lo2":-89.0444,"dy":0.0017,"dx":0.0017,"nx":28,"ny":28,"refTime":"2024-04-01T03:00:00:Z","depth":"2","parameterNumber":3,"parameterNumberName":"V-component_of_CURRENTS"},"data":[0,0,0,0,0,0,0,0,0,0,0,0,0,0,0,0,0,0,0,0,0,0,0,0,0,0,0,0,0,0,0,0,0,0,0,0,0,0,0,0,0,0,0,0,0,0,0,0,0,0,0,0,0,0,0,0,0,0,-0.0164,-0.0164,0,-0.0214,-0.0214,-0.0215,-0.0251,-0.0251,-0.0251,-0.0252,-0.0349,-0.0351,-0.0354,0,0,0,0,0,0,0,0,0,0,0,0,0,-0.0137,-0.0137,-0.0164,-0.0164,-0.0165,-0.0214,-0.0214,-0.0215,-0.0251,-0.0251,-0.0251,-0.0252,-0.0348,-0.0351,-0.0354,0,0,0,0,0,0,0,0,0,0,0,0,0,-0.0163,-0.0137,-0.0164,-0.0189,-0.0191,-0.0213,-0.0214,-0.0215,-0.0251,-0.0251,-0.0251,-0.0252,-0.0348,-0.0351,-0.0354,-0.0367,0,0,-0.0365,-0.0367,0,0,0,0,0,0,0,0,-0.0162,-0.0164,-0.0184,-0.0187,-0.019,-0.0226,-0.0241,-0.0268,-0.025,-0.0228,-0.0252,-0.0252,-0.0312,-0.0319,-0.0326,-0.0372,-0.0376,-0.0365,-0.0367,-0.0369,-0.037,0,0,0,0,0,0,0,-0.016,-0.0163,-0.0184,-0.0185,-0.0188,-0.021,-0.0214,-0.0246,-0.0268,-0.023,-0.0233,-0.0238,-0.0314,-0.0323,-0.0329,-0.0377,-0.0365,-0.0368,-0.0371,-0.0372,-0.0436,-0.0436,0,0,0,0,0,0,-0.0151,-0.0161,-0.0182,-0.0185,-0.0177,-0.021,-0.0215,-0.0214,-0.0267,-0.0275,-0.0238,-0.024,-0.0317,-0.0325,-0.0333,-0.034,-0.0369,-0.0372,-0.0374,-0.0436,-0.0436,-0.0435,0,0,0,0,0,0,-0.015,-0.0152,-0.018,-0.0174,-0.018,-0.021,-0.021,-0.0215,-0.0224,-0.0272,-0.0281,-0.0241,-0.0317,-0.0328,-0.0353,-0.0345,-0.0374,-0.0377,-0.0437,-0.0436,-0.0436,-0.0362,0,0,0,0,0,0,-0.0149,-0.0152,-0.0147,-0.0174,-0.0179,-0.0185,-0.0209,-0.0216,-0.0227,-0.023,-0.0278,-0.0287,-0.0319,-0.0348,-0.0357,-0.035,-0.038,-0.0437,-0.0437,-0.0436,-0.0365,-0.0359,-0.0354,0,0,0,0,0,-0.0148,-0.0138,-0.0147,-0.0149,-0.0173,-0.0185,-0.0189,-0.0213,-0.0226,-0.0224,-0.0255,-0.0286,-0.035,-0.035,-0.0361,-0.0355,-0.0438,-0.0437,-0.0436,-0.0368,-0.036,-0.0354,0,0,0,0,0,0,-0.0122,-0.0141,-0.0152,-0.0147,-0.0162,-0.0191,-0.0192,-0.0208,-0.0231,-0.0235,-0.0281,-0.0292,-0.0312,-0.0343,-0.0343,-0.0371,-0.0399,-0.04,-0.0343,-0.0337,-0.0331,-0.0311,-0.0383,0,0,0,0,0,-0.0114,-0.0112,-0.0134,-0.013,-0.0136,-0.0163,-0.0171,-0.0186,-0.021,-0.022,-0.0253,-0.0288,-0.0317,-0.0333,-0.0364,-0.038,-0.0404,-0.0384,-0.0378,-0.0373,-0.0363,-0.0391,-0.0387,-0.0432,-0.0432,-0.0433,0,0,-0.0104,-0.0113,-0.0113,-0.0125,-0.0139,-0.0138,-0.0169,-0.0175,-0.0173,-0.0228,-0.0236,-0.0271,-0.0317,-0.0332,-0.0344,-0.0357,-0.0372,-0.0372,-0.0367,-0.036,-0.039,-0.0385,-0.0381,-0.0432,-0.0432,-0.0432,0,0,-0.008,-0.0089,-0.008,-0.0087,-0.0103,-0.0117,-0.0116,-0.014,-0.015,-0.0163,-0.0201,-0.0225,-0.0271,-0.0296,-0.0317,-0.03,-0.0343,-0.0315,-0.027,-0.0296,-0.0293,-0.029,-0.0309,-0.0308,-0.0311,-0.0311,-0.031,0,-0.0067,-0.0056,-0.0079,-0.0071,-0.0069,-0.0103,-0.0089,-0.0104,-0.0132,-0.0133,-0.0156,-0.021,-0.0252,-0.0266,-0.0261,-0.0287,-0.0307,-0.029,-0.0288,-0.0286,-0.0284,-0.0304,-0.0304,-0.0307,-0.0307,-0.0308,-0.0308,0,-0.0036,-0.0028,-0.0022,-0.0021,-0.0022,-0.0015,-0.0035,-0.0037,-0.0056,-0.0072,-0.0089,-0.0142,-0.017,-0.0191,-0.0224,-0.0229,-0.0249,-0.0277,-0.0301,-0.0274,-0.0298,-0.03,-0.0302,-0.0303,-0.0304,-0.0305,0,0,-0.0006,-0.0,0.0002,0.0016,0.0008,0.0013,0.0021,0.0022,0.0038,-0.0003,0.0013,-0.0048,-0.0075,-0.0099,-0.0144,-0.0171,-0.0181,-0.0213,-0.0216,-0.0224,-0.0233,-0.0273,-0.0279,-0.0209,-0.0209,-0.0209,-0.0252,0,0.0027,0.006,0.0052,0.0086,0.0103,0.0085,0.0105,0.01,0.0086,0.0093,0.0036,0.003,-0.004,-0.0045,-0.0086,-0.0153,-0.0182,-0.0166,-0.0264,-0.0266,-0.03,-0.0282,-0.0244,-0.0282,-0.0253,-0.0254,-0.0254,0,0.006,0.0081,0.0125,0.0155,0.0162,0.0182,0.0213,0.0222,0.0216,0.0209,0.0183,0.0139,0.0097,0.0036,-0.007,-0.0056,-0.0135,-0.0196,-0.0199,-0.0263,-0.031,-0.0306,-0.0286,-0.0257,-0.0257,-0.0256,-0.0256,0,0.0102,0.0132,0.0175,0.0183,0.0211,0.0238,0.0255,0.0263,0.0297,0.0289,0.0314,0.0238,0.0222,0.011,-0.0025,-0.0043,-0.014,-0.0183,-0.0295,-0.0299,-0.0299,-0.0303,-0.0256,-0.0255,-0.0255,-0.0255,-0.0255,0,0.0142,0.0174,0.0203,0.0228,0.0297,0.0293,0.0365,0.037,0.0406,0.0466,0.0383,0.041,0.024,0.0159,0.0019,-0.0137,-0.011,-0.028,-0.0312,-0.0273,-0.0274,-0.0282,-0.0285,-0.0257,-0.0257,-0.0256,-0.0256,0,0.0181,0.0195,0.0251,0.0298,0.032,0.0372,0.0451,0.0505,0.0523,0.0601,0.061,0.0548,0.0434,0.0255,0.0079,-0.0068,-0.0219,-0.0282,-0.0224,-0.0249,-0.0371,-0.0369,-0.041,-0.0412,-0.0414,-0.0415,-0.0416,0,0.0203,0.0236,0.031,0.0359,0.0387,0.0463,0.0527,0.0567,0.0628,0.0693,0.0737,0.0659,0.0602,0.0318,0.0057,-0.0195,-0.0228,-0.0331,-0.0374,-0.0359,-0.0386,-0.0382,-0.0378,-0.034,-0.034,-0.034,-0.034,0,0.025,0.028,0.0333,0.0434,0.051,0.06,0.0685,0.0751,0.0812,0.085,0.0893,0.0858,0.0619,0.0364,0.0021,-0.0149,-0.0294,-0.0348,-0.0333,-0.0315,-0.0299,-0.0323,-0.0321,-0.0343,-0.0343,-0.0343,-0.0342,-0.0342,0.0288,0.0341,0.0414,0.0512,0.0604,0.0716,0.0769,0.0853,0.0931,0.0991,0.0986,0.0945,0.07,0.0253,-0.0029,-0.032,-0.0326,-0.043,-0.0426,-0.0423,-0.0415,-0.0404,-0.0466,-0.0466,-0.0466,-0.0467,-0.0467,0,0.0326,0.0391,0.0485,0.0588,0.0685,0.0741,0.0858,0.0904,0.0958,0.1053,0.1052,0.0846,0.058,0.0317,-0.0113,-0.0395,-0.0403,-0.0477,-0.0414,-0.041,-0.0407,-0.0397,-0.0443,-0.0444,-0.0444,-0.0445,0,0,0.0349,0.0429,0.0479,0.0629,0.0715,0.0807,0.0867,0.0939,0.1011,0.1053,0.1057,0.102,0.0714,0.0406,0.0039,-0.019,-0.024,-0.0244,-0.0235,-0.0115,-0.0108,-0.0355,-0.0332,0,0,0,0,0]}],[{"header":{"parameterUnit":"m.s-1","parameterCategory":2,"la1":30.2991,"la2":30.254,"lo1":-89.0895,"lo2":-89.0444,"dy":0.0017,"dx":0.0017,"nx":28,"ny":28,"refTime":"2024-04-01T03:00:00:Z","depth":"4","parameterNumber":2,"parameterNumberName":"U-component_of_CURRENTS"},"data":[0,0,0,0,0,0,0,0,0,0,0,0,0,0,0,0,0,0,0,0,0,0,0,0,0,0,0,0,0,0,0,0,0,0,0,0,0,0,0,0,0,0,0,0,0,0,0,0,0,0,0,0,0,0,0,0,0,0,0.1284,0.1285,0,0.1332,0.1333,0.1333,0.1377,0.1378,0.1379,0.1379,0.1437,0.1437,0.1438,0,0,0,0,0,0,0,0,0,0,0,0,0,0.1208,0.1209,0.1284,0.1285,0.1286,0.1332,0.1333,0.1333,0.1377,0.1378,0.1379,0.138,0.1436,0.1437,0.1438,0,0,0,0,0,0,0,0,0,0,0,0,0,0.1244,0.1209,0.1284,0.1315,0.1318,0.1332,0.1333,0.1333,0.1377,0.1378,0.1379,0.138,0.1436,0.1437,0.1438,0.1423,0,0,0.1442,0.1443,0,0,0,0,0,0,0,0,0.1242,0.1247,0.131,0.1313,0.1317,0.1352,0.1327,0.1365,0.1376,0.1352,0.1379,0.1381,0.141,0.1413,0.1416,0.1426,0.1428,0.1442,0.1443,0.1443,0.1444,0,0,0,0,0,0,0,0.124,0.1245,0.1301,0.131,0.1315,0.1319,0.1326,0.1334,0.1372,0.1354,0.1358,0.1367,0.1412,0.1415,0.1418,0.1429,0.1442,0.1443,0.1444,0.1444,0.1529,0.153,0,0,0,0,0,0,0.1239,0.1242,0.1299,0.1302,0.1285,0.132,0.1327,0.1337,0.1372,0.1379,0.1366,0.1369,0.1412,0.1416,0.142,0.1484,0.1443,0.1445,0.1445,0.1527,0.1529,0.1531,0,0,0,0,0,0,0.1237,0.1243,0.1297,0.1275,0.1283,0.1321,0.1332,0.1338,0.1372,0.1381,0.1388,0.1397,0.1413,0.1418,0.1457,0.1484,0.1445,0.1446,0.1526,0.1528,0.153,0.1561,0,0,0,0,0,0,0.1235,0.1242,0.126,0.1275,0.1284,0.1324,0.1331,0.1338,0.1375,0.138,0.141,0.1415,0.1415,0.1455,0.1458,0.1485,0.1447,0.1524,0.1527,0.1529,0.1558,0.1564,0.1569,0,0,0,0,0,0.1232,0.1247,0.126,0.1268,0.1304,0.1325,0.133,0.1358,0.1376,0.1392,0.1418,0.1415,0.1475,0.1457,0.146,0.1488,0.1522,0.1526,0.1529,0.1555,0.1563,0.1569,0,0,0,0,0,0,0.1223,0.1253,0.1268,0.1293,0.1318,0.1334,0.1357,0.1373,0.1405,0.142,0.1428,0.1435,0.148,0.1481,0.1461,0.1523,0.1501,0.1505,0.152,0.1527,0.1532,0.1548,0.1448,0,0,0,0,0,0.1228,0.1251,0.1276,0.1299,0.1315,0.1341,0.1358,0.1378,0.1403,0.142,0.1442,0.1468,0.149,0.1507,0.1525,0.1554,0.1573,0.1577,0.1583,0.1587,0.1604,0.1657,0.1669,0.1542,0.1542,0.1542,0,0,0.1231,0.1252,0.1266,0.13,0.1323,0.1342,0.1355,0.139,0.1414,0.1419,0.1468,0.1488,0.1503,0.1539,0.1559,0.1547,0.1633,0.1592,0.1595,0.161,0.1662,0.1674,0.1685,0.1544,0.1544,0.1544,0,0,0.1236,0.127,0.1286,0.1309,0.135,0.1364,0.1381,0.1416,0.1445,0.1483,0.15,0.1542,0.1569,0.1591,0.1602,0.165,0.166,0.1658,0.1699,0.1749,0.176,0.177,0.1806,0.1818,0.1661,0.1661,0.1661,0,0.1241,0.1262,0.1294,0.1315,0.1339,0.1377,0.1397,0.1425,0.1471,0.1501,0.1507,0.1583,0.1594,0.1646,0.1666,0.1663,0.1691,0.1667,0.1756,0.1766,0.1776,0.181,0.1824,0.1663,0.1663,0.1663,0.1662,0,0.125,0.1276,0.129,0.1328,0.1358,0.1385,0.1426,0.1466,0.1504,0.1535,0.1609,0.1636,0.169,0.1695,0.1694,0.1771,0.1769,0.1755,0.1737,0.1791,0.1823,0.1837,0.1666,0.1665,0.1664,0.1664,0,0,0.1228,0.1285,0.1291,0.1305,0.1371,0.1383,0.1443,0.1496,0.1546,0.1598,0.1671,0.1712,0.1755,0.1773,0.1791,0.1832,0.1914,0.183,0.1831,0.1861,0.2029,0.189,0.1891,0.192,0.1923,0.1925,0.2023,0,0.1225,0.1258,0.1293,0.1321,0.134,0.1399,0.1455,0.1515,0.1575,0.1656,0.1713,0.1791,0.1777,0.1829,0.1867,0.1908,0.1954,0.1889,0.1977,0.198,0.1846,0.1903,0.1934,0.2033,0.2036,0.2038,0.204,0,0.1212,0.1238,0.1274,0.1325,0.1342,0.1376,0.1471,0.1525,0.1648,0.1714,0.1806,0.1861,0.1954,0.1935,0.2035,0.1999,0.2029,0.2046,0.205,0.1921,0.1866,0.1971,0.2065,0.2063,0.2061,0.2059,0.2058,0,0.1162,0.121,0.1238,0.1258,0.1336,0.1375,0.1432,0.155,0.162,0.1776,0.1849,0.1958,0.2041,0.209,0.2127,0.2104,0.2223,0.2189,0.2091,0.2081,0.2163,0.2152,0.2271,0.2271,0.2271,0.2271,0.227,0,0.1128,0.1142,0.1221,0.1229,0.1292,0.1358,0.1451,0.1535,0.1677,0.1767,0.1888,0.1974,0.2089,0.2159,0.2173,0.2168,0.2264,0.2115,0.2103,0.2172,0.2161,0.2173,0.216,0.2274,0.2274,0.2273,0.2272,0,0.1062,0.1115,0.1144,0.123,0.127,0.1319,0.1463,0.1526,0.1673,0.1799,0.1862,0.2025,0.2121,0.2191,0.2288,0.2218,0.2232,0.221,0.2291,0.2279,0.2048,0.2036,0.2112,0.2108,0.2104,0.2101,0.2099,0,0.1028,0.1041,0.1139,0.1176,0.1219,0.1313,0.139,0.1536,0.1602,0.1802,0.1845,0.2006,0.2096,0.2114,0.22,0.2228,0.22,0.2189,0.2106,0.2054,0.2036,0.2029,0.2022,0.2094,0.2093,0.2092,0.2091,0,0.096,0.1011,0.104,0.1135,0.1206,0.1271,0.1373,0.1416,0.1579,0.1719,0.1803,0.1867,0.1975,0.2043,0.2089,0.2096,0.2179,0.2153,0.2159,0.2081,0.2033,0.2017,0.2013,0.2079,0.2081,0.2082,0.2083,0,0.0916,0.0933,0.0997,0.107,0.1154,0.119,0.1259,0.1331,0.1421,0.1621,0.1651,0.1811,0.196,0.1977,0.201,0.2016,0.1982,0.19,0.1919,0.1933,0.1827,0.1736,0.1695,0,0,0,0,0,0.0864,0.0875,0.0929,0.099,0.1066,0.1113,0.1227,0.1294,0.1452,0.1468,0.1552,0.1643,0.1722,0.1808,0.178,0.1929,0.1984,0.1887,0.1896,0.2014,0.2028,0.1917,0,0,0,0,0,0,0.0828,0.0866,0.0896,0.0911,0.0931,0.0999,0.106,0.1161,0.1177,0.1345,0.1403,0.1528,0.1636,0.1719,0.1744,0.1768,0.1736,0.1988,0.1983,0.2007,0.2019,0.203,0.1921,0,0,0,0,0]},{"header":{"parameterUnit":"m.s-1","parameterCategory":2,"la1":30.2991,"la2":30.254,"lo1":-89.0895,"lo2":-89.0444,"dy":0.0017,"dx":0.0017,"nx":28,"ny":28,"refTime":"2024-04-01T03:00:00:Z","depth":"4","parameterNumber":3,"parameterNumberName":"V-component_of_CURRENTS"},"data":[0,0,0,0,0,0,0,0,0,0,0,0,0,0,0,0,0,0,0,0,0,0,0,0,0,0,0,0,0,0,0,0,0,0,0,0,0,0,0,0,0,0,0,0,0,0,0,0,0,0,0,0,0,0,0,0,0,0,-0.0097,-0.0097,0,-0.0127,-0.0128,-0.0128,-0.0154,-0.0155,-0.0155,-0.0155,-0.0218,-0.0219,-0.0221,0,0,0,0,0,0,0,0,0,0,0,0,0,-0.0085,-0.0084,-0.0097,-0.0097,-0.0098,-0.0127,-0.0128,-0.0128,-0.0154,-0.0155,-0.0155,-0.0155,-0.0218,-0.0219,-0.0221,0,0,0,0,0,0,0,0,0,0,0,0,0,-0.01,-0.0084,-0.0097,-0.0115,-0.0116,-0.0127,-0.0128,-0.0128,-0.0154,-0.0155,-0.0155,-0.0156,-0.0217,-0.0219,-0.0221,-0.0224,0,0,-0.0227,-0.0228,0,0,0,0,0,0,0,0,-0.0099,-0.01,-0.0112,-0.0113,-0.0115,-0.0138,-0.0146,-0.0162,-0.0154,-0.014,-0.0155,-0.0156,-0.0194,-0.0198,-0.0202,-0.0227,-0.023,-0.0228,-0.0229,-0.023,-0.023,0,0,0,0,0,0,0,-0.0098,-0.0099,-0.0109,-0.0112,-0.0114,-0.0129,-0.0131,-0.0149,-0.0164,-0.0141,-0.0143,-0.0146,-0.0195,-0.02,-0.0204,-0.0231,-0.0228,-0.0229,-0.0231,-0.0231,-0.0274,-0.0274,0,0,0,0,0,0,-0.0092,-0.0098,-0.0108,-0.011,-0.0108,-0.0128,-0.0131,-0.013,-0.0163,-0.0169,-0.0146,-0.0148,-0.0196,-0.0201,-0.0206,-0.0211,-0.023,-0.0232,-0.0233,-0.0274,-0.0274,-0.0274,0,0,0,0,0,0,-0.0092,-0.0093,-0.0107,-0.0105,-0.0108,-0.0128,-0.0126,-0.013,-0.0138,-0.0167,-0.0173,-0.015,-0.0197,-0.0203,-0.022,-0.0214,-0.0233,-0.0234,-0.0274,-0.0274,-0.0274,-0.0222,0,0,0,0,0,0,-0.0091,-0.0092,-0.009,-0.0104,-0.0108,-0.0109,-0.0126,-0.0131,-0.0139,-0.0142,-0.0173,-0.0179,-0.0197,-0.0217,-0.0222,-0.0217,-0.0236,-0.0274,-0.0274,-0.0274,-0.0224,-0.022,-0.0217,0,0,0,0,0,-0.0091,-0.0083,-0.009,-0.0091,-0.0104,-0.0109,-0.0112,-0.0128,-0.0139,-0.0138,-0.0159,-0.0178,-0.022,-0.0218,-0.0225,-0.022,-0.0274,-0.0274,-0.0274,-0.0225,-0.0221,-0.0217,0,0,0,0,0,0,-0.0076,-0.0086,-0.0093,-0.0089,-0.0098,-0.0114,-0.0115,-0.0127,-0.0142,-0.0147,-0.0175,-0.0182,-0.0197,-0.0216,-0.0214,-0.0233,-0.0251,-0.0252,-0.0212,-0.0208,-0.0204,-0.0189,-0.0238,0,0,0,0,0,-0.0072,-0.007,-0.0082,-0.0079,-0.0082,-0.0099,-0.0104,-0.0114,-0.013,-0.0137,-0.0158,-0.0181,-0.02,-0.0209,-0.023,-0.0238,-0.0265,-0.024,-0.0237,-0.0233,-0.0226,-0.026,-0.0258,-0.0273,-0.0273,-0.0273,0,0,-0.0066,-0.0071,-0.007,-0.0076,-0.0085,-0.0079,-0.0103,-0.0108,-0.0102,-0.0142,-0.0144,-0.0172,-0.02,-0.0209,-0.0217,-0.0224,-0.0245,-0.0233,-0.023,-0.0224,-0.0259,-0.0258,-0.0257,-0.0273,-0.0273,-0.0273,0,0,-0.0049,-0.0056,-0.0049,-0.0051,-0.006,-0.0068,-0.0068,-0.0083,-0.0089,-0.0097,-0.0123,-0.0143,-0.0172,-0.0186,-0.0198,-0.0188,-0.0228,-0.02,-0.0166,-0.0199,-0.0198,-0.0198,-0.0236,-0.0239,-0.0195,-0.0195,-0.0195,0,-0.0043,-0.003,-0.0047,-0.0038,-0.0032,-0.0059,-0.0043,-0.0053,-0.0071,-0.0071,-0.0092,-0.013,-0.0158,-0.0163,-0.0161,-0.0179,-0.0209,-0.0177,-0.0194,-0.0194,-0.0194,-0.0234,-0.0238,-0.0193,-0.0193,-0.0193,-0.0194,0,-0.0019,-0.0007,-0.0001,0.0005,0.0007,0.0016,0.0005,0.0005,-0.001,-0.0024,-0.0038,-0.0078,-0.0098,-0.0114,-0.0135,-0.0146,-0.0171,-0.0187,-0.0201,-0.0189,-0.0232,-0.0237,-0.0189,-0.019,-0.0191,-0.0191,0,0,-0.0004,0.0013,0.0016,0.0039,0.0034,0.0046,0.0054,0.006,0.007,0.0037,0.0044,0.0004,-0.0025,-0.0041,-0.0075,-0.0105,-0.0138,-0.0143,-0.0146,-0.0175,-0.022,-0.0217,-0.0224,-0.016,-0.0161,-0.0161,-0.0251,0,0.0023,0.006,0.0058,0.0102,0.0125,0.0115,0.0132,0.0131,0.0112,0.0108,0.0064,0.0048,0.0005,-0.0008,-0.0044,-0.0118,-0.0149,-0.0113,-0.0232,-0.0236,-0.023,-0.0228,-0.0162,-0.0255,-0.0257,-0.0257,-0.0258,0,0.0049,0.0076,0.012,0.017,0.018,0.02,0.0229,0.0234,0.0214,0.02,0.0169,0.0122,0.0077,0.0036,-0.0076,-0.0054,-0.0127,-0.0187,-0.0192,-0.0209,-0.0242,-0.027,-0.0268,-0.0267,-0.0267,-0.0266,-0.0265,0,0.0079,0.0126,0.017,0.0183,0.0223,0.0251,0.0268,0.0263,0.0272,0.0249,0.024,0.0179,0.0139,0.0046,-0.0083,-0.0083,-0.0215,-0.0231,-0.0296,-0.0298,-0.0296,-0.0296,-0.0302,-0.0302,-0.0301,-0.0301,-0.0301,0,0.0113,0.0152,0.0194,0.022,0.0287,0.0293,0.0342,0.0347,0.0341,0.0345,0.0284,0.0263,0.0137,0.0042,-0.0068,-0.0201,-0.0206,-0.0288,-0.0317,-0.0274,-0.027,-0.03,-0.0299,-0.0305,-0.0304,-0.0303,-0.0303,0,0.0136,0.0157,0.022,0.0279,0.0302,0.0346,0.0396,0.0415,0.0406,0.0404,0.0397,0.0315,0.0194,0.0061,-0.01,-0.0181,-0.0306,-0.035,-0.0298,-0.0323,-0.0372,-0.0367,-0.0427,-0.0428,-0.0428,-0.0429,-0.0429,0,0.015,0.0181,0.0262,0.0297,0.0327,0.039,0.0422,0.0445,0.0455,0.0429,0.0422,0.0321,0.0251,0.0035,-0.011,-0.0306,-0.0332,-0.0395,-0.0376,-0.0361,-0.0383,-0.0377,-0.0372,-0.043,-0.043,-0.043,-0.043,0,0.0176,0.0201,0.0248,0.0318,0.0369,0.0434,0.0479,0.0497,0.0502,0.0501,0.0451,0.0342,0.0208,0.0043,-0.0109,-0.0252,-0.0352,-0.0401,-0.0401,-0.0383,-0.0365,-0.0385,-0.0379,-0.0432,-0.0432,-0.0431,-0.0431,0,0.0186,0.0218,0.0265,0.033,0.039,0.0438,0.0482,0.0498,0.0516,0.0493,0.0474,0.034,0.0268,0.0068,-0.0077,-0.021,-0.0243,-0.028,-0.0287,-0.0287,-0.0217,-0.0172,-0.0201,0,0,0,0,0,0.0187,0.0208,0.0267,0.0334,0.0393,0.0432,0.0489,0.0519,0.0535,0.051,0.0499,0.0381,0.018,0.009,-0.0041,-0.0107,-0.0284,-0.0268,-0.0335,-0.0441,-0.0439,-0.0381,0,0,0,0,0,0,0.0179,0.0223,0.0254,0.0312,0.0358,0.0423,0.0464,0.0487,0.0483,0.0485,0.0386,0.035,0.0155,0.0257,-0.0043,-0.0086,-0.0146,-0.0357,-0.036,-0.0442,-0.0441,-0.0439,-0.0378,0,0,0,0,0]}]]